User: anonymous   Login
Location: NJAA Observatory
(40.6819°N, 74.8979°W)
Time: 14:22:07
(UTC-05:00)
Language:

Meteor 2-9 Rocket - Orbit

View from above orbital plane
View from above orbital plane
View from above satellite
View from above satellite

Ground track
Ground track

The orbit data is extracted from the following two-line orbital elements,

1 13719U 82116B   17322.84482774 +.00000009 +00000-0 -16106-5 0  9997
2 13719 081.2559 208.8607 0070665 271.7832 158.6188 14.14614367802237
Epoch (UTC): 18 November 2017 20:16:33
Eccentricity: 0.0070665
inclination: 81.2559°
perigee height: 792 km
apogee height: 894 km
right ascension of ascending node: 208.8607°
argument of perigee: 271.7832°
revolutions per day: 14.14614367
mean anomaly at epoch: 158.6188°
orbit number at epoch: 80223

The dashed part of the orbit path shows where the satellite is in the earth's shadow,  

DLR